Simultaneous Nadir Overpasses (SNOs) Predictions

Prediction of SNOs between METOP-B and TERRA Satellite Orbit:

Table of predicted SNOs for the next 14.0 days since TLE Epoch: 4/21/2018
Index Date (METOP-B) Time (METOP-B) Lat,Lon (METOP-B) SZA (METOP-B ) Date (TERRA) Time (TERRA) Lat,Lon (TERRA) SZA (TERRA ) Distance(km) Time Diff (sec)
1 04/23/2018 15:25:53 -81.34, 176.42 108.35 04/23/2018 15:27:01 -81.34, 176.32 108.33 1.76 68
2 04/23/2018 16:16:33 81.34, -15.99 71.67 04/23/2018 16:16:27 81.35, -15.87 71.69 2.18 6
3 04/26/2018 11:00:15 -81.34,-117.53 109.30 04/26/2018 11:01:19 -81.34,-117.34 109.24 3.16 64
4 04/26/2018 11:50:54 81.34, 50.41 70.77 04/26/2018 11:50:45 81.35, 50.46 70.77 0.96 9
5 04/29/2018 06:34:35 -81.34, -51.10 110.17 04/29/2018 06:35:36 -81.33, -51.05 110.14 1.09 61
6 04/29/2018 07:25:14 81.34, 116.79 69.90 04/29/2018 07:25:02 81.34, 116.73 69.88 1.12 12
7 05/02/2018 02:08:55 -81.34, 15.71 110.96 05/02/2018 02:09:53 -81.34, 15.56 110.95 2.48 58
8 05/02/2018 02:59:35 81.34,-176.85 69.05 05/02/2018 02:59:19 81.35,-176.68 69.06 2.91 16
9 05/04/2018 21:43:16 -81.34, 82.10 111.77 05/04/2018 21:44:10 -81.35, 82.11 111.74 0.55 54




NCC Satellite Simultaneous Nadir Overpasses (SNOs) Prediction Service
